,,,PA_Meas_PMT16A,,PR_Meas_QMR101_102,,RH_Meas_QMH101,,SR_Meas_QMS101,,TA_Meas_QMH101,,GenWind,,GenWind,
date,time,status,PA,status,PR,status,RH,status,SR,status,TA,status,DirAvg,status,SpdAvg,
2008-09-07, 00:00:04,VALID,1008.98,VALID,0,VALID,94.4068,VALID,0,VALID,24.5905,VALID,60,VALID,0.184766,
2008-09-07, 00:01:04,VALID,1008.95,VALID,0,VALID,94.4145,VALID,0,VALID,24.571,VALID,60,VALID,0.0078125,
2008-09-07, 00:02:04,VALID,1008.97,VALID,0,VALID,94.4068,VALID,0,VALID,24.571,VALID,60,VALID,0.0949219,
2008-09-07, 00:03:04,VALID,1008.96,VALID,0,VALID,94.4297,VALID,0,VALID,24.5515,VALID,60,VALID,0.171094,
2008-09-07, 00:04:04,VALID,1008.93,VALID,0,VALID,94.4373,VALID,0,VALID,24.5496,VALID,60,VALID,0,
2008-09-07, 00:05:04,VALID,1008.96,VALID,0,VALID,94.445,VALID,0,VALID,24.5515,VALID,60,VALID,0,
2008-09-07, 00:06:04,VALID,1008.93,VALID,0,VALID,94.4755,VALID,0,VALID,24.5515,VALID,60,VALID,0,
2008-09-07, 00:07:04,VALID,1008.96,VALID,0,VALID,94.506,VALID,0,VALID,24.5515,VALID,3,VALID,0.341016,
2008-09-07, 00:08:04,VALID,1008.93,VALID,0,VALID,94.5288,VALID,0,VALID,24.571,VALID,303,VALID,0.491406,
2008-09-07, 00:09:04,VALID,1008.95,VALID,0,VALID,94.5593,VALID,0,VALID,24.571,VALID,285,VALID,0.663281,
2008-09-07, 00:10:04,VALID,1008.96,VALID,0,VALID,94.5898,VALID,0,VALID,24.571,VALID,290,VALID,0.694141,
2008-09-07, 00:11:04,VALID,1008.93,VALID,0,VALID,94.5975,VALID,0,VALID,24.5496,VALID,283,VALID,0.669922,
2008-09-07, 00:12:04,VALID,1008.91,VALID,0,VALID,94.628,VALID,0,VALID,24.571,VALID,271,VALID,0.593359,
2008-09-07, 00:13:04,VALID,1008.91,VALID,0,VALID,94.6508,VALID,0,VALID,24.5886,VALID,286,VALID,0.235156,
2008-09-07, 00:14:04,VALID,1008.9,VALID,0,VALID,94.6508,VALID,0.105969,VALID,24.5691,VALID,289,VALID,0.320703,
2008-09-07, 00:15:04,VALID,1008.87,VALID,0,VALID,94.6356,VALID,0,VALID,24.6081,VALID,292,VALID,0.571875,
2008-09-07, 00:16:04,VALID,1008.85,VALID,0,VALID,94.628,VALID,0,VALID,24.5886,VALID,293,VALID,0.174219,
2008-09-07, 00:17:04,VALID,1008.83,VALID,0,VALID,94.6127,VALID,0,VALID,24.6489,VALID,293,VALID,0.288281,
2008-09-07, 00:18:04,VALID,1008.8,VALID,0,VALID,94.5975,VALID,0,VALID,24.6099,VALID,306,VALID,0.3125,
2008-09-07, 00:19:04,VALID,1008.81,VALID,0,VALID,94.5746,VALID,0.105969,VALID,24.5905,VALID,306,VALID,0.169922,
2008-09-07, 00:20:04,VALID,1008.81,VALID,0,VALID,94.5593,VALID,0,VALID,24.5905,VALID,330,VALID,0.192969,
2008-09-07, 00:21:04,VALID,1008.78,VALID,0,VALID,94.5288,VALID,0,VALID,24.571,VALID,31,VALID,0.48125,
2008-09-07, 00:22:04,VALID,1008.78,VALID,0,VALID,94.5441,VALID,0,VALID,24.571,VALID,37,VALID,0.45,
2008-09-07, 00:23:04,VALID,1008.74,VALID,0,VALID,94.506,VALID,0,VALID,24.532,VALID,69,VALID,0.552344,
2008-09-07, 00:24:04,VALID,1008.77,VALID,0,VALID,94.506,VALID,0,VALID,24.532,VALID,69,VALID,0.313672,
2008-09-07, 00:25:04,VALID,1008.74,VALID,0,VALID,94.5212,VALID,0.105969,VALID,24.532,VALID,69,VALID,0,
2008-09-07, 00:26:04,VALID,1008.75,VALID,0,VALID,94.5212,VALID,0,VALID,24.532,VALID,69,VALID,0,
2008-09-07, 00:27:04,VALID,1008.74,VALID,0,VALID,94.5212,VALID,0.105969,VALID,24.5125,VALID,69,VALID,0,
2008-09-07, 00:28:04,VALID,1008.72,VALID,0,VALID,94.567,VALID,0.105969,VALID,24.5106,VALID,69,VALID,0,
2008-09-07, 00:29:04,VALID,1008.73,VALID,0,VALID,94.5822,VALID,0,VALID,24.5106,VALID,69,VALID,0,
2008-09-07, 00:30:04,VALID,1008.74,VALID,0,VALID,94.6356,VALID,0,VALID,24.532,VALID,69,VALID,0,
2008-09-07, 00:31:04,VALID,1008.78,VALID,0,VALID,94.6432,VALID,0,VALID,24.5301,VALID,69,VALID,0,
2008-09-07, 00:32:04,VALID,1008.81,VALID,0,VALID,94.689,VALID,0,VALID,24.5496,VALID,69,VALID,0.314453,
2008-09-07, 00:33:04,VALID,1008.82,VALID,0,VALID,94.7195,VALID,0.105969,VALID,24.5691,VALID,69,VALID,0.2875,
2008-09-07, 00:34:04,VALID,1008.85,VALID,0,VALID,94.7347,VALID,0.105969,VALID,24.571,VALID,185,VALID,0.508203,
2008-09-07, 00:35:04,VALID,1008.89,VALID,0,VALID,94.75,VALID,0.105969,VALID,24.5905,VALID,186,VALID,0.664453,
2008-09-07, 00:36:04,VALID,1008.92,VALID,0,VALID,94.7576,VALID,0.105969,VALID,24.5905,VALID,186,VALID,0.573438,
2008-09-07, 00:37:04,VALID,1008.9,VALID,0,VALID,94.75,VALID,0.105969,VALID,24.5496,VALID,186,VALID,0.4,
2008-09-07, 00:38:04,VALID,1008.91,VALID,0,VALID,94.7805,VALID,0,VALID,24.5496,VALID,186,VALID,0.390625,
2008-09-07, 00:39:04,VALID,1008.92,VALID,0,VALID,94.7805,VALID,0.105969,VALID,24.5496,VALID,186,VALID,0.364844,
2008-09-07, 00:40:04,VALID,1008.94,VALID,0,VALID,94.7805,VALID,0.105969,VALID,24.5301,VALID,187,VALID,0.341406,
2008-09-07, 00:41:04,VALID,1008.92,VALID,0,VALID,94.8339,VALID,0.105969,VALID,24.5691,VALID,187,VALID,0.132031,
2008-09-07, 00:42:04,VALID,1008.91,VALID,0,VALID,94.8568,VALID,0.105969,VALID,24.6099,VALID,187,VALID,0.0285156,
2008-09-07, 00:43:04,VALID,1008.89,VALID,0,VALID,94.8339,VALID,0,VALID,24.5691,VALID,187,VALID,0.289844,
2008-09-07, 00:44:04,VALID,1008.89,VALID,0,VALID,94.8491,VALID,0,VALID,24.571,VALID,187,VALID,0.124609,
2008-09-07, 00:45:04,VALID,1008.91,VALID,0,VALID,94.8568,VALID,0,VALID,24.5905,VALID,187,VALID,0,
2008-09-07, 00:46:04,VALID,1008.9,VALID,0,VALID,94.872,VALID,0,VALID,24.5905,VALID,187,VALID,0.009375,
2008-09-07, 00:47:04,VALID,1008.9,VALID,0,VALID,94.8491,VALID,0,VALID,24.5905,VALID,187,VALID,0,
2008-09-07, 00:48:04,VALID,1008.87,VALID,0,VALID,94.8873,VALID,0,VALID,24.6099,VALID,187,VALID,0.246094,
2008-09-07, 00:49:04,VALID,1008.87,VALID,0,VALID,94.8796,VALID,0,VALID,24.6099,VALID,187,VALID,0.255859,
2008-09-07, 00:50:04,VALID,1008.87,VALID,0,VALID,94.8873,VALID,0,VALID,24.6294,VALID,187,VALID,0.560547,
2008-09-07, 00:51:04,VALID,1008.83,VALID,0,VALID,94.8949,VALID,0,VALID,24.6489,VALID,187,VALID,0.496094,
2008-09-07, 00:52:04,VALID,1008.83,VALID,0,VALID,94.8644,VALID,0,VALID,24.6294,VALID,187,VALID,0.503125,
2008-09-07, 00:53:04,VALID,1008.78,VALID,0,VALID,94.872,VALID,0,VALID,24.5886,VALID,187,VALID,0.583594,
2008-09-07, 00:54:04,VALID,1008.75,VALID,0,VALID,94.8949,VALID,0.105969,VALID,24.6081,VALID,187,VALID,0.273438,
2008-09-07, 00:55:04,VALID,1008.71,VALID,0,VALID,94.8796,VALID,0,VALID,24.6684,VALID,187,VALID,0.377734,
2008-09-07, 00:56:04,VALID,1008.7,VALID,0,VALID,94.8796,VALID,0,VALID,24.6684,VALID,187,VALID,0.453516,
2008-09-07, 00:57:04,VALID,1008.68,VALID,0,VALID,94.8873,VALID,0,VALID,24.6684,VALID,187,VALID,0.374609,
2008-09-07, 00:58:04,VALID,1008.66,VALID,0,VALID,94.8949,VALID,0,VALID,24.6489,VALID,187,VALID,0.257031,
2008-09-07, 00:59:04,VALID,1008.6,VALID,0,VALID,94.8949,VALID,0,VALID,24.6879,VALID,187,VALID,0.198828,
2008-09-07, 01:00:04,VALID,1008.58,VALID,0,VALID,94.8873,VALID,0,VALID,24.6471,VALID,187,VALID,0.210156,
2008-09-07, 01:01:04,VALID,1008.56,VALID,0,VALID,94.8873,VALID,0,VALID,24.6684,VALID,187,VALID,0.316797,
2008-09-07, 01:02:05,VALID,1008.53,VALID,0,VALID,94.872,VALID,0,VALID,24.6879,VALID,187,VALID,0.392969,
2008-09-07, 01:03:05,VALID,1008.51,VALID,0,VALID,94.8644,VALID,0,VALID,24.6684,VALID,187,VALID,0.383203,
2008-09-07, 01:04:05,VALID,1008.49,VALID,0,VALID,94.8339,VALID,0,VALID,24.6684,VALID,183,VALID,0.466797,
2008-09-07, 01:05:05,VALID,1008.47,VALID,0,VALID,94.8186,VALID,0,VALID,24.6879,VALID,183,VALID,0.512891,
2008-09-07, 01:06:05,VALID,1008.47,VALID,0,VALID,94.8262,VALID,0,VALID,24.7269,VALID,167,VALID,0.424219,
2008-09-07, 01:07:05,VALID,1008.44,VALID,0,VALID,94.8262,VALID,0,VALID,24.7074,VALID,167,VALID,0.399219,
2008-09-07, 01:08:05,VALID,1008.44,VALID,0,VALID,94.8415,VALID,0,VALID,24.6879,VALID,167,VALID,0.584766,
2008-09-07, 01:09:05,VALID,1008.44,VALID,0,VALID,94.8186,VALID,0,VALID,24.7074,VALID,167,VALID,0.576953,
2008-09-07, 01:10:05,VALID,1008.45,VALID,0,VALID,94.8186,VALID,0,VALID,24.6879,VALID,172,VALID,0.561328,
2008-09-07, 01:11:05,VALID,1008.47,VALID,0,VALID,94.7805,VALID,0,VALID,24.7074,VALID,175,VALID,0.5875,
2008-09-07, 01:12:05,VALID,1008.48,VALID,0,VALID,94.7576,VALID,0,VALID,24.7055,VALID,175,VALID,0.670703,
2008-09-07, 01:13:05,VALID,1008.48,VALID,0,VALID,94.7805,VALID,0,VALID,24.7269,VALID,170,VALID,0.736328,
2008-09-07, 01:14:05,VALID,1008.49,VALID,0,VALID,94.7881,VALID,0,VALID,24.7464,VALID,170,VALID,0.436328,
2008-09-07, 01:15:05,VALID,1008.49,VALID,0,VALID,94.7881,VALID,0,VALID,24.7854,VALID,175,VALID,0.73125,
2008-09-07, 01:16:05,VALID,1008.49,VALID,0,VALID,94.8262,VALID,0,VALID,24.7659,VALID,173,VALID,0.807031,
2008-09-07, 01:17:05,VALID,1008.49,VALID,0,VALID,94.8262,VALID,0,VALID,24.764,VALID,161,VALID,1.00078,
2008-09-07, 01:18:05,VALID,1008.49,VALID,0,VALID,94.8262,VALID,0,VALID,24.764,VALID,171,VALID,0.748047,
2008-09-07, 01:19:05,VALID,1008.46,VALID,0,VALID,94.8186,VALID,0,VALID,24.7854,VALID,168,VALID,1.11328,
2008-09-07, 01:20:05,VALID,1008.42,VALID,0,VALID,94.8186,VALID,0,VALID,24.8438,VALID,149,VALID,1.11055,
2008-09-07, 01:21:05,VALID,1008.43,VALID,0,VALID,94.811,VALID,0,VALID,24.8438,VALID,158,VALID,0.950781,
2008-09-07, 01:22:05,VALID,1008.44,VALID,0,VALID,94.8262,VALID,0,VALID,24.8438,VALID,198,VALID,0.94375,
2008-09-07, 01:23:05,VALID,1008.4,VALID,0,VALID,94.811,VALID,0,VALID,24.8438,VALID,162,VALID,0.933594,
2008-09-07, 01:24:05,VALID,1008.4,VALID,0,VALID,94.811,VALID,0,VALID,24.8633,VALID,159,VALID,0.758594,
2008-09-07, 01:25:05,VALID,1008.39,VALID,0,VALID,94.7957,VALID,0,VALID,24.842,VALID,168,VALID,0.760547,
2008-09-07, 01:26:05,VALID,1008.39,VALID,0,VALID,94.8034,VALID,0,VALID,24.842,VALID,162,VALID,1.48516,
2008-09-07, 01:27:05,VALID,1008.37,VALID,0,VALID,94.7729,VALID,0,VALID,24.8438,VALID,147,VALID,1.08281,
2008-09-07, 01:28:05,VALID,1008.34,VALID,0.5,VALID,94.7805,VALID,0,VALID,24.7835,VALID,139,VALID,1.33281,
2008-09-07, 01:29:05,VALID,1008.32,VALID,0,VALID,94.7576,VALID,0,VALID,24.8244,VALID,147,VALID,1.02188,
2008-09-07, 01:30:05,VALID,1008.32,VALID,0,VALID,94.7271,VALID,0,VALID,24.8438,VALID,141,VALID,0.669141,
2008-09-07, 01:31:05,VALID,1008.3,VALID,0,VALID,94.7347,VALID,0,VALID,24.8244,VALID,164,VALID,0.962109,
2008-09-07, 01:32:05,VALID,1008.31,VALID,0,VALID,94.7195,VALID,0,VALID,24.8049,VALID,164,VALID,1.33359,
2008-09-07, 01:33:05,VALID,1008.28,VALID,0,VALID,94.7271,VALID,0,VALID,24.8244,VALID,132,VALID,1.09727,
2008-09-07, 01:34:05,VALID,1008.31,VALID,0,VALID,94.7271,VALID,0,VALID,24.8244,VALID,156,VALID,0.556641,
2008-09-07, 01:35:05,VALID,1008.29,VALID,0,VALID,94.7119,VALID,0,VALID,24.8049,VALID,138,VALID,0.887109,
2008-09-07, 01:36:05,VALID,1008.28,VALID,0,VALID,94.6966,VALID,0,VALID,24.803,VALID,173,VALID,0.539844,
2008-09-07, 01:37:05,VALID,1008.27,VALID,0,VALID,94.7195,VALID,0,VALID,24.8244,VALID,128,VALID,0.683594,
2008-09-07, 01:38:05,VALID,1008.28,VALID,0,VALID,94.6814,VALID,0,VALID,24.8244,VALID,152,VALID,0.904297,
2008-09-07, 01:39:05,VALID,1008.28,VALID,0,VALID,94.6966,VALID,0,VALID,24.8244,VALID,143,VALID,0.538281,
2008-09-07, 01:40:05,VALID,1008.29,VALID,0,VALID,94.6966,VALID,0,VALID,24.7835,VALID,134,VALID,0.848437,
2008-09-07, 01:41:05,VALID,1008.27,VALID,0,VALID,94.6661,VALID,0,VALID,24.8049,VALID,133,VALID,0.496484,
2008-09-07, 01:42:05,VALID,1008.25,VALID,0,VALID,94.6737,VALID,0,VALID,24.8049,VALID,133,VALID,0.517969,
2008-09-07, 01:43:05,VALID,1008.22,VALID,0,VALID,94.6966,VALID,0,VALID,24.8244,VALID,128,VALID,0.996484,
2008-09-07, 01:44:05,VALID,1008.22,VALID,0,VALID,94.6508,VALID,0,VALID,24.7854,VALID,120,VALID,1.0082,
2008-09-07, 01:45:05,VALID,1008.22,VALID,0,VALID,94.6737,VALID,0,VALID,24.803,VALID,121,VALID,1.19297,
2008-09-07, 01:46:05,VALID,1008.22,VALID,0,VALID,94.6432,VALID,0.105969,VALID,24.8049,VALID,125,VALID,0.916016,
2008-09-07, 01:47:05,VALID,1008.22,VALID,0,VALID,94.6737,VALID,0.105969,VALID,24.803,VALID,129,VALID,0.824609,
2008-09-07, 01:48:05,VALID,1008.21,VALID,0,VALID,94.6508,VALID,0,VALID,24.8244,VALID,126,VALID,0.969922,
2008-09-07, 01:49:05,VALID,1008.2,VALID,0,VALID,94.6585,VALID,0,VALID,24.8049,VALID,108,VALID,0.716016,
2008-09-07, 01:50:05,VALID,1008.21,VALID,0,VALID,94.6508,VALID,0,VALID,24.8049,VALID,90,VALID,0.969922,
2008-09-07, 01:51:05,VALID,1008.18,VALID,0,VALID,94.6203,VALID,0,VALID,24.7659,VALID,94,VALID,0.99375,
2008-09-07, 01:52:05,VALID,1008.21,VALID,0,VALID,94.6051,VALID,0.105969,VALID,24.764,VALID,90,VALID,0.890625,
2008-09-07, 01:53:05,VALID,1008.24,VALID,0,VALID,94.6127,VALID,0,VALID,24.764,VALID,89,VALID,0.450781,
2008-09-07, 01:54:05,VALID,1008.23,VALID,0,VALID,94.6051,VALID,0.105969,VALID,24.764,VALID,97,VALID,0.660547,
2008-09-07, 01:55:05,VALID,1008.26,VALID,0,VALID,94.6051,VALID,0.105969,VALID,24.7854,VALID,106,VALID,0.632422,
2008-09-07, 01:56:05,VALID,1008.26,VALID,0,VALID,94.5898,VALID,0,VALID,24.7854,VALID,106,VALID,0.628516,
2008-09-07, 01:57:05,VALID,1008.29,VALID,0,VALID,94.5975,VALID,0,VALID,24.764,VALID,106,VALID,0.215625,
2008-09-07, 01:58:05,VALID,1008.29,VALID,0,VALID,94.5746,VALID,0.105969,VALID,24.7445,VALID,90,VALID,0.485547,
2008-09-07, 01:59:05,VALID,1008.29,VALID,0,VALID,94.5898,VALID,0,VALID,24.725,VALID,92,VALID,0.144141,
2008-09-07, 02:00:05,VALID,1008.31,VALID,0,VALID,94.5898,VALID,0,VALID,24.7854,VALID,92,VALID,0.244922,
2008-09-07, 02:01:05,VALID,1008.31,VALID,0,VALID,94.5822,VALID,0,VALID,24.7464,VALID,92,VALID,0.216797,
2008-09-07, 02:02:05,VALID,1008.33,VALID,0,VALID,94.5975,VALID,0,VALID,24.7854,VALID,107,VALID,0.0992187,
2008-09-07, 02:03:05,VALID,1008.34,VALID,0,VALID,94.6127,VALID,0,VALID,24.764,VALID,160,VALID,0.585156,
2008-09-07, 02:04:05,VALID,1008.35,VALID,0,VALID,94.5898,VALID,0,VALID,24.7659,VALID,160,VALID,0.485547,
2008-09-07, 02:05:05,VALID,1008.31,VALID,0,VALID,94.5975,VALID,0,VALID,24.764,VALID,172,VALID,0.469141,
2008-09-07, 02:06:05,VALID,1008.33,VALID,0,VALID,94.5975,VALID,0,VALID,24.7464,VALID,172,VALID,0.594141,
2008-09-07, 02:07:05,VALID,1008.34,VALID,0,VALID,94.6203,VALID,0,VALID,24.7659,VALID,181,VALID,0.869922,
2008-09-07, 02:08:05,VALID,1008.33,VALID,0,VALID,94.6432,VALID,0,VALID,24.7464,VALID,181,VALID,0.867969,
2008-09-07, 02:09:05,VALID,1008.32,VALID,0,VALID,94.628,VALID,0,VALID,24.725,VALID,183,VALID,0.763281,
2008-09-07, 02:10:05,VALID,1008.32,VALID,0,VALID,94.6585,VALID,0,VALID,24.725,VALID,184,VALID,0.577734,
2008-09-07, 02:11:05,VALID,1008.33,VALID,0,VALID,94.7042,VALID,0,VALID,24.7854,VALID,184,VALID,0.496875,
2008-09-07, 02:12:05,VALID,1008.31,VALID,0,VALID,94.7195,VALID,0,VALID,24.7854,VALID,184,VALID,0.483203,
2008-09-07, 02:13:05,VALID,1008.29,VALID,0,VALID,94.7424,VALID,0.105969,VALID,24.7835,VALID,184,VALID,0.598047,
2008-09-07, 02:14:05,VALID,1008.3,VALID,0,VALID,94.7424,VALID,0,VALID,24.7659,VALID,182,VALID,0.835938,
2008-09-07, 02:15:05,VALID,1008.26,VALID,0,VALID,94.7881,VALID,0.105969,VALID,24.7659,VALID,181,VALID,0.54375,
2008-09-07, 02:16:05,VALID,1008.25,VALID,0,VALID,94.7881,VALID,0,VALID,24.764,VALID,190,VALID,0.549219,
2008-09-07, 02:17:05,VALID,1008.26,VALID,0,VALID,94.7805,VALID,0,VALID,24.7854,VALID,196,VALID,0.585938,
2008-09-07, 02:18:05,VALID,1008.24,VALID,0,VALID,94.7957,VALID,0,VALID,24.7835,VALID,175,VALID,0.515625,
2008-09-07, 02:19:05,VALID,1008.22,VALID,0,VALID,94.7881,VALID,0.105969,VALID,24.7464,VALID,166,VALID,0.683203,
2008-09-07, 02:20:05,VALID,1008.16,VALID,0,VALID,94.7805,VALID,0,VALID,24.7464,VALID,170,VALID,0.763672,
2008-09-07, 02:21:05,VALID,1008.14,VALID,0,VALID,94.7805,VALID,0,VALID,24.7659,VALID,172,VALID,0.573438,
2008-09-07, 02:22:05,VALID,1008.12,VALID,0,VALID,94.811,VALID,0,VALID,24.7659,VALID,174,VALID,0.918359,
2008-09-07, 02:23:05,VALID,1008.12,VALID,0,VALID,94.7881,VALID,0,VALID,24.7464,VALID,144,VALID,0.508984,
2008-09-07, 02:24:05,VALID,1008.11,VALID,0,VALID,94.8034,VALID,0,VALID,24.7445,VALID,168,VALID,0.542969,
2008-09-07, 02:25:05,VALID,1008.1,VALID,0,VALID,94.811,VALID,0,VALID,24.7445,VALID,151,VALID,0.516797,
2008-09-07, 02:26:05,VALID,1008.1,VALID,0,VALID,94.7881,VALID,0.105969,VALID,24.7659,VALID,158,VALID,0.852734,
2008-09-07, 02:27:05,VALID,1008.11,VALID,0,VALID,94.8186,VALID,0.105969,VALID,24.7055,VALID,131,VALID,0.93125,
2008-09-07, 02:28:05,VALID,1008.12,VALID,0,VALID,94.7957,VALID,0.105969,VALID,24.7055,VALID,143,VALID,0.837891,
2008-09-07, 02:29:05,VALID,1008.12,VALID,0,VALID,94.7881,VALID,0,VALID,24.7074,VALID,156,VALID,1.06523,
2008-09-07, 02:30:05,VALID,1008.13,VALID,0,VALID,94.7957,VALID,0,VALID,24.7074,VALID,195,VALID,0.4,
2008-09-07, 02:31:05,VALID,1008.14,VALID,0,VALID,94.8262,VALID,0,VALID,24.686,VALID,194,VALID,0.399609,
2008-09-07, 02:32:05,VALID,1008.18,VALID,0,VALID,94.7957,VALID,0,VALID,24.686,VALID,171,VALID,0.426953,
2008-09-07, 02:33:05,VALID,1008.18,VALID,0,VALID,94.7805,VALID,0,VALID,24.7055,VALID,162,VALID,0.677734,
2008-09-07, 02:34:05,VALID,1008.17,VALID,0,VALID,94.7652,VALID,0,VALID,24.6684,VALID,147,VALID,0.741016,
2008-09-07, 02:35:05,VALID,1008.2,VALID,0,VALID,94.7805,VALID,0,VALID,24.6666,VALID,146,VALID,0.387891,
2008-09-07, 02:36:05,VALID,1008.21,VALID,0,VALID,94.7881,VALID,0.105969,VALID,24.7055,VALID,134,VALID,0.535547,
2008-09-07, 02:37:05,VALID,1008.21,VALID,0,VALID,94.7805,VALID,0.105969,VALID,24.686,VALID,133,VALID,0.378516,
2008-09-07, 02:38:05,VALID,1008.22,VALID,0,VALID,94.7805,VALID,0,VALID,24.6666,VALID,133,VALID,0.353516,
2008-09-07, 02:39:05,VALID,1008.23,VALID,0,VALID,94.7729,VALID,0,VALID,24.6666,VALID,157,VALID,0.573828,
2008-09-07, 02:40:05,VALID,1008.21,VALID,0,VALID,94.75,VALID,0,VALID,24.6471,VALID,163,VALID,0.665625,
2008-09-07, 02:41:05,VALID,1008.23,VALID,0,VALID,94.7576,VALID,0,VALID,24.6471,VALID,182,VALID,0.353125,
2008-09-07, 02:42:05,VALID,1008.23,VALID,0,VALID,94.7271,VALID,0.105969,VALID,24.6666,VALID,184,VALID,0.576563,
2008-09-07, 02:43:05,VALID,1008.24,VALID,0,VALID,94.7195,VALID,0,VALID,24.6684,VALID,179,VALID,0.917188,
2008-09-07, 02:44:05,VALID,1008.26,VALID,0,VALID,94.6966,VALID,0.105969,VALID,24.6471,VALID,164,VALID,0.561328,
2008-09-07, 02:45:05,VALID,1008.24,VALID,0,VALID,94.6737,VALID,0.105969,VALID,24.6684,VALID,163,VALID,0.601953,
2008-09-07, 02:46:05,VALID,1008.26,VALID,0,VALID,94.6508,VALID,0.105969,VALID,24.6471,VALID,164,VALID,0.50625,
2008-09-07, 02:47:05,VALID,1008.24,VALID,0,VALID,94.6661,VALID,0.105969,VALID,24.6666,VALID,177,VALID,0.459375,
2008-09-07, 02:48:05,VALID,1008.22,VALID,0,VALID,94.628,VALID,0.105969,VALID,24.6471,VALID,185,VALID,0.821094,
2008-09-07, 02:49:05,VALID,1008.22,VALID,0,VALID,94.6127,VALID,0.105969,VALID,24.6276,VALID,168,VALID,0.743359,
2008-09-07, 02:50:05,VALID,1008.18,VALID,0,VALID,94.5822,VALID,0.105969,VALID,24.6471,VALID,203,VALID,0.515234,
2008-09-07, 02:51:05,VALID,1008.2,VALID,0,VALID,94.6127,VALID,0.105969,VALID,24.6879,VALID,186,VALID,0.526172,
2008-09-07, 02:52:05,VALID,1008.17,VALID,0,VALID,94.5517,VALID,0.105969,VALID,24.6471,VALID,179,VALID,0.826172,
2008-09-07, 02:53:05,VALID,1008.14,VALID,0,VALID,94.5288,VALID,0.105969,VALID,24.6471,VALID,179,VALID,0.548047,
2008-09-07, 02:54:05,VALID,1008.14,VALID,0,VALID,94.4983,VALID,0.105969,VALID,24.6666,VALID,174,VALID,0.584375,
2008-09-07, 02:55:05,VALID,1008.11,VALID,0,VALID,94.4907,VALID,0,VALID,24.6471,VALID,161,VALID,0.645312,
2008-09-07, 02:56:05,VALID,1008.15,VALID,0,VALID,94.4602,VALID,0.105969,VALID,24.6471,VALID,193,VALID,0.771875,
2008-09-07, 02:57:05,VALID,1008.12,VALID,0,VALID,94.4373,VALID,0,VALID,24.6684,VALID,188,VALID,0.880469,
2008-09-07, 02:58:05,VALID,1008.12,VALID,0,VALID,94.4373,VALID,0,VALID,24.6489,VALID,161,VALID,0.661719,
2008-09-07, 02:59:05,VALID,1008.11,VALID,0,VALID,94.4145,VALID,0.105969,VALID,24.6489,VALID,156,VALID,0.650781,
2008-09-07, 03:00:05,VALID,1008.1,VALID,0,VALID,94.3992,VALID,0,VALID,24.6276,VALID,126,VALID,0.68125,
2008-09-07, 03:01:05,VALID,1008.1,VALID,0,VALID,94.4068,VALID,0.105969,VALID,24.6471,VALID,140,VALID,1.06016,
2008-09-07, 03:02:05,VALID,1008.09,VALID,0,VALID,94.4297,VALID,0,VALID,24.6471,VALID,159,VALID,0.826953,
2008-09-07, 03:03:05,VALID,1008.07,VALID,0,VALID,94.4068,VALID,0.105969,VALID,24.6666,VALID,146,VALID,0.675,
2008-09-07, 03:04:05,VALID,1008.09,VALID,0,VALID,94.4068,VALID,0.105969,VALID,24.6471,VALID,157,VALID,0.598437,
2008-09-07, 03:05:05,VALID,1008.11,VALID,0,VALID,94.4068,VALID,0,VALID,24.6471,VALID,164,VALID,0.620313,
2008-09-07, 03:06:05,VALID,1008.11,VALID,0,VALID,94.3916,VALID,0.105969,VALID,24.6666,VALID,162,VALID,0.821875,
2008-09-07, 03:07:05,VALID,1008.15,VALID,0,VALID,94.3687,VALID,0,VALID,24.6276,VALID,149,VALID,0.860547,
2008-09-07, 03:08:05,VALID,1008.13,VALID,0,VALID,94.3687,VALID,0,VALID,24.6471,VALID,144,VALID,0.716016,
2008-09-07, 03:09:05,VALID,1008.15,VALID,0,VALID,94.3611,VALID,0.105969,VALID,24.6276,VALID,160,VALID,0.853516,
2008-09-07, 03:10:05,VALID,1008.18,VALID,0,VALID,94.3687,VALID,0.105969,VALID,24.6471,VALID,155,VALID,0.83125,
2008-09-07, 03:11:05,VALID,1008.19,VALID,0,VALID,94.3382,VALID,0.105969,VALID,24.6471,VALID,170,VALID,1.29805,
2008-09-07, 03:12:05,VALID,1008.18,VALID,0,VALID,94.3001,VALID,0,VALID,24.6276,VALID,162,VALID,0.705469,
2008-09-07, 03:13:05,VALID,1008.2,VALID,0,VALID,94.2924,VALID,0,VALID,24.6471,VALID,158,VALID,0.644141,
2008-09-07, 03:14:05,VALID,1008.23,VALID,0,VALID,94.2696,VALID,0,VALID,24.6081,VALID,147,VALID,0.880078,
2008-09-07, 03:15:05,VALID,1008.26,VALID,0,VALID,94.2467,VALID,0,VALID,24.6294,VALID,122,VALID,0.561719,
2008-09-07, 03:16:05,VALID,1008.27,VALID,0,VALID,94.2696,VALID,0,VALID,24.6471,VALID,148,VALID,0.602734,
2008-09-07, 03:17:05,VALID,1008.26,VALID,0,VALID,94.2619,VALID,0.105969,VALID,24.6471,VALID,166,VALID,0.536328,
2008-09-07, 03:18:05,VALID,1008.28,VALID,0,VALID,94.2162,VALID,0,VALID,24.6276,VALID,153,VALID,0.701563,
2008-09-07, 03:19:05,VALID,1008.3,VALID,0,VALID,94.2009,VALID,0,VALID,24.6489,VALID,165,VALID,0.783203,
2008-09-07, 03:20:05,VALID,1008.28,VALID,0,VALID,94.1247,VALID,0,VALID,24.6276,VALID,162,VALID,0.458594,
2008-09-07, 03:21:05,VALID,1008.29,VALID,0,VALID,94.1399,VALID,0,VALID,24.6471,VALID,141,VALID,0.469922,
2008-09-07, 03:22:05,VALID,1008.29,VALID,0,VALID,94.2009,VALID,0,VALID,24.686,VALID,134,VALID,0.402344,
2008-09-07, 03:23:05,VALID,1008.26,VALID,0,VALID,94.2238,VALID,0.105969,VALID,24.686,VALID,112,VALID,0.780859,
2008-09-07, 03:24:05,VALID,1008.28,VALID,0,VALID,94.1857,VALID,0,VALID,24.686,VALID,125,VALID,0.506641,
2008-09-07, 03:25:05,VALID,1008.27,VALID,0,VALID,94.1323,VALID,0.105969,VALID,24.7074,VALID,118,VALID,0.392188,
2008-09-07, 03:26:05,VALID,1008.26,VALID,0,VALID,94.1094,VALID,0,VALID,24.7074,VALID,113,VALID,0.569531,
2008-09-07, 03:27:05,VALID,1008.25,VALID,0,VALID,94.1247,VALID,0.105969,VALID,24.7269,VALID,108,VALID,0.848047,
2008-09-07, 03:28:05,VALID,1008.24,VALID,0,VALID,94.1399,VALID,0,VALID,24.7269,VALID,121,VALID,0.817969,
2008-09-07, 03:29:05,VALID,1008.25,VALID,0,VALID,94.0484,VALID,0,VALID,24.7074,VALID,121,VALID,0.622656,
2008-09-07, 03:30:05,VALID,1008.22,VALID,0,VALID,93.9874,VALID,0.105969,VALID,24.686,VALID,125,VALID,0.822266,
2008-09-07, 03:31:05,VALID,1008.22,VALID,0,VALID,93.9645,VALID,0.105969,VALID,24.7269,VALID,126,VALID,0.732813,
2008-09-07, 03:32:05,VALID,1008.23,VALID,0,VALID,93.9798,VALID,0,VALID,24.7464,VALID,134,VALID,0.81875,
2008-09-07, 03:33:05,VALID,1008.23,VALID,0,VALID,93.9798,VALID,0,VALID,24.7074,VALID,140,VALID,0.378125,
2008-09-07, 03:34:05,VALID,1008.2,VALID,0,VALID,94.0179,VALID,0.105969,VALID,24.725,VALID,140,VALID,0.446094,
2008-09-07, 03:35:05,VALID,1008.19,VALID,0,VALID,94.0332,VALID,0.105969,VALID,24.7055,VALID,104,VALID,0.528125,
2008-09-07, 03:36:05,VALID,1008.18,VALID,0,VALID,94.0408,VALID,0,VALID,24.7055,VALID,104,VALID,0.425,
2008-09-07, 03:37:05,VALID,1008.18,VALID,0,VALID,94.0484,VALID,0,VALID,24.7074,VALID,117,VALID,0.574609,
2008-09-07, 03:38:05,VALID,1008.18,VALID,0,VALID,94.0103,VALID,0,VALID,24.6666,VALID,143,VALID,0.555078,
2008-09-07, 03:39:05,VALID,1008.18,VALID,0,VALID,94.0255,VALID,0.105969,VALID,24.686,VALID,134,VALID,0.505859,
2008-09-07, 03:40:05,VALID,1008.16,VALID,0,VALID,94.0103,VALID,0,VALID,24.6666,VALID,154,VALID,0.795703,
2008-09-07, 03:41:05,VALID,1008.13,VALID,0,VALID,94.0637,VALID,0,VALID,24.7074,VALID,122,VALID,0.525781,